Weather History for Broken Bow, NE

Change the Weather History Date:

Tuesday, November 13, 2012

  Actual Average Record
Temperature  
Mean Temperature 34 °F 37 °F  
Max Temperature 56 °F 50 °F 78 °F (1999)
Min Temperature 11 °F 24 °F -11 °F (1986)
Degree Days  
Heating Degree Days 31 28  
Month to date heating degree days 352 322  
Cooling Degree Days 0 0  
Month to date cooling degree days 0 0  
Year to date cooling degree days 1077 768  
Moisture  
Dew Point 15 °F    
Average Humidity 50    
Maximum Humidity 80    
Minimum Humidity 20    
Precipitation  
Precipitation 0.00 in 0.03 in 0.92 in (1993)
Sea Level Pressure  
Sea Level Pressure 30.30 in    
Wind  
Wind Speed 3 mph (NW)    
Max Wind Speed 13 mph    
Max Gust Speed 17 mph    
Visibility 10 miles    
Events      
T = Trace of Precipitation, MM = Missing Value Source: NWS Daily Summary

Daily Weather History Graph

Daily Weather History Graph

Search for Another Location

Airport:

Trip Planner

Search our weather history database for the weather conditions in past years. The results will help you decide how hot, cold, wet, or windy it might be!

Date:

Astronomy

Nov. 13, 2012 Rise Set
Actual Time 7:25 AM CST 5:20 PM CST
Civil Twilight 6:55 AM CST 5:49 PM CST
Nautical Twilight 6:22 AM CST 6:23 PM CST
Astronomical Twilight 5:49 AM CST 6:55 PM CST
Moon 7:05 AM CST (11/13) 5:14 PM CST (11/13)
Length of Visible Light 10h 54m
Length of Day
9h 54m
Waning Crescent, 0% of the Moon is Illuminated
Nov 13
Waning Crescent
Nov 13
New
Nov 20
First Quarter
Nov 28
Full
Dec 6
Last Quarter

Hourly Weather History & Observations

Time (CST) Temp. Windchill Dew Point Humidity Pressure Visibility Wind Dir Wind Speed Gust Speed Precip Events Conditions
12:53 AM 15.1 °F - 8.1 °F 74% 30.37 in 10.0 mi Calm Calm - N/A   Clear
1:53 AM 12.9 °F - 7.0 °F 77% 30.36 in 10.0 mi Calm Calm - N/A   Clear
2:53 AM 15.1 °F - 8.1 °F 74% 30.35 in 10.0 mi Calm Calm - N/A   Clear
3:53 AM 16.0 °F - 8.1 °F 71% 30.34 in 10.0 mi Calm Calm - N/A   Clear
4:53 AM 17.1 °F - 9.0 °F 71% 30.32 in 10.0 mi Calm Calm - N/A   Clear
5:53 AM 19.0 °F - 10.0 °F 68% 30.33 in 10.0 mi Calm Calm - N/A   Clear
6:53 AM 16.0 °F - 10.9 °F 81% 30.34 in 10.0 mi Calm Calm - N/A   Clear
7:53 AM 18.0 °F - 12.0 °F 78% 30.35 in 10.0 mi Calm Calm - N/A   Mostly Cloudy
8:53 AM 30.0 °F - 18.0 °F 61% 30.34 in 10.0 mi Calm Calm - N/A   Mostly Cloudy
9:53 AM 35.1 °F 32.2 °F 17.1 °F 48% 30.33 in 10.0 mi South 3.5 mph - N/A   Overcast
10:53 AM 41.0 °F 35.2 °F 12.9 °F 32% 30.32 in 10.0 mi WSW 9.2 mph - N/A   Scattered Clouds
11:53 AM 48.9 °F - 14.0 °F 25% 30.28 in 10.0 mi West 8.1 mph - N/A   Partly Cloudy
12:53 PM 55.0 °F - 16.0 °F 22% 30.23 in 10.0 mi Variable 5.8 mph - N/A   Clear
1:53 PM 55.0 °F - 16.0 °F 22% 30.22 in 10.0 mi NW 9.2 mph - N/A   Scattered Clouds
2:53 PM 55.0 °F - 17.1 °F 23% 30.21 in 10.0 mi NW 3.5 mph - N/A   Clear
3:53 PM 54.0 °F - 18.0 °F 24% 30.22 in 10.0 mi Calm Calm - N/A   Clear
4:53 PM 50.0 °F - 23.0 °F 35% 30.23 in 10.0 mi North 8.1 mph - N/A   Clear
5:53 PM 45.0 °F - 23.0 °F 42% 30.26 in 10.0 mi Calm Calm - N/A   Clear
6:53 PM 39.0 °F 33.4 °F 21.9 °F 50% 30.29 in 10.0 mi North 8.1 mph - N/A   Scattered Clouds
7:53 PM 42.1 °F - 21.9 °F 45% 30.30 in 10.0 mi Calm Calm - N/A   Mostly Cloudy
8:53 PM 33.1 °F 27.7 °F 19.0 °F 56% 30.30 in 10.0 mi North 5.8 mph - N/A   Clear
9:53 PM 30.0 °F - 19.0 °F 64% 30.32 in 10.0 mi Calm Calm - N/A   Clear
10:53 PM 24.1 °F 19.7 °F 18.0 °F 77% 30.32 in 10.0 mi NNW 3.5 mph - N/A   Clear
11:53 PM 24.1 °F - 16.0 °F 71% 30.30 in 10.0 mi Calm Calm - N/A   Clear